TimeCDT,TemperatureF,Dew PointF,Humidity,Sea Level PressureIn,VisibilityMPH,Wind Direction,Wind SpeedMPH,Gust SpeedMPH,PrecipitationIn,Events,Conditions,WindDirDegrees,DateUTC
12:15 AM,50.9,50.2,97,30.07,10.0,East,10.4,-,N/A,,Drizzle,80,2013-10-05 05:15:00
12:35 AM,50.5,50.0,98,30.05,7.0,East,11.5,-,N/A,,Light Drizzle,90,2013-10-05 05:35:00
12:55 AM,50.5,50.0,98,30.04,10.0,East,9.2,16.1,N/A,,Light Drizzle,100,2013-10-05 05:55:00
1:15 AM,50.9,50.0,97,30.03,10.0,East,15.0,18.4,N/A,,Drizzle,100,2013-10-05 06:15:00
1:35 AM,50.7,50.0,97,30.04,7.0,East,11.5,17.3,0.01,Rain,Rain,100,2013-10-05 06:35:00
1:55 AM,50.5,50.4,99,30.04,7.0,East,10.4,-,0.07,Rain,Rain,90,2013-10-05 06:55:00
2:15 AM,50.9,50.5,99,30.05,10.0,ESE,8.1,16.1,0.02,Rain,Rain,110,2013-10-05 07:15:00
2:35 AM,50.9,50.9,100,30.04,5.0,ESE,12.7,-,0.06,Rain,Rain,110,2013-10-05 07:35:00
2:55 AM,50.9,50.9,100,30.03,7.0,ESE,6.9,-,0.14,Rain,Rain,110,2013-10-05 07:55:00
3:15 AM,50.9,50.9,100,30.04,10.0,ESE,9.2,-,0.01,Rain,Light Rain,110,2013-10-05 08:15:00
3:35 AM,50.9,50.9,100,30.02,10.0,East,9.2,-,0.03,Rain,Rain,100,2013-10-05 08:35:00
3:55 AM,50.9,50.9,100,30.02,10.0,East,10.4,-,0.07,Rain,Rain,100,2013-10-05 08:55:00
4:15 AM,51.1,50.9,99,30.01,10.0,East,11.5,17.3,0.03,Rain,Rain,100,2013-10-05 09:15:00
4:35 AM,50.9,50.9,100,30.00,10.0,East,12.7,17.3,0.07,Rain,Rain,100,2013-10-05 09:35:00
4:55 AM,50.9,50.9,100,29.99,10.0,East,15.0,23.0,0.11,Rain,Rain,100,2013-10-05 09:55:00
5:15 AM,50.9,50.9,100,30.00,10.0,ESE,13.8,-,0.02,Rain,Rain,110,2013-10-05 10:15:00
5:35 AM,50.9,50.9,100,29.96,10.0,East,15.0,21.9,0.07,Rain,Rain,90,2013-10-05 10:35:00
5:55 AM,50.9,50.9,100,29.96,10.0,ESE,13.8,21.9,0.08,Rain,Light Rain,110,2013-10-05 10:55:00
6:15 AM,51.1,50.9,99,29.97,10.0,East,10.4,16.1,N/A,,Overcast,100,2013-10-05 11:15:00
6:35 AM,51.1,50.9,99,29.95,10.0,East,12.7,18.4,N/A,,Overcast,100,2013-10-05 11:35:00
6:55 AM,51.1,50.9,99,29.96,10.0,ESE,12.7,24.2,N/A,,Overcast,110,2013-10-05 11:55:00
7:15 AM,51.1,50.9,99,29.97,10.0,ESE,12.7,19.6,N/A,,Overcast,110,2013-10-05 12:15:00
7:35 AM,51.1,50.9,99,29.97,10.0,East,11.5,17.3,N/A,,Overcast,100,2013-10-05 12:35:00
7:55 AM,51.1,51.1,100,29.97,10.0,ESE,11.5,20.7,N/A,,Overcast,110,2013-10-05 12:55:00
8:15 AM,50.9,50.9,100,29.96,10.0,East,11.5,18.4,N/A,,Overcast,100,2013-10-05 13:15:00
8:35 AM,51.1,51.1,100,29.95,4.0,East,13.8,19.6,N/A,,Overcast,100,2013-10-05 13:35:00
8:55 AM,51.1,51.1,100,29.95,1.8,East,10.4,16.1,N/A,,Overcast,90,2013-10-05 13:55:00
9:15 AM,51.3,51.3,100,29.95,1.5,East,11.5,17.3,N/A,,Overcast,90,2013-10-05 14:15:00
9:35 AM,51.8,51.8,100,29.96,2.0,ESE,12.7,16.1,N/A,,Overcast,110,2013-10-05 14:35:00
9:55 AM,51.8,51.8,100,29.96,1.5,East,11.5,17.3,N/A,,Overcast,100,2013-10-05 14:55:00
10:15 AM,51.8,51.8,100,29.97,1.5,ESE,8.1,-,N/A,Rain,Light Rain,110,2013-10-05 15:15:00
10:35 AM,52.0,52.0,100,30.00,1.5,Calm,Calm,-,N/A,Rain,Heavy Rain,0,2013-10-05 15:35:00
10:55 AM,52.0,52.0,100,29.99,1.5,East,9.2,-,0.13,Rain,Heavy Rain,100,2013-10-05 15:55:00
11:15 AM,52.3,52.3,100,29.96,4.0,East,5.8,-,0.12,Rain,Rain,90,2013-10-05 16:15:00
11:35 AM,52.7,52.7,100,29.95,10.0,East,10.4,-,0.14,Rain,Light Rain,90,2013-10-05 16:35:00
11:55 AM,52.9,52.7,99,29.95,10.0,East,8.1,-,0.14,,Overcast,100,2013-10-05 16:55:00
12:15 PM,53.1,52.7,99,29.94,10.0,ESE,9.2,-,N/A,,Overcast,110,2013-10-05 17:15:00
12:35 PM,53.2,52.9,99,29.93,7.0,ESE,10.4,-,0.02,Rain,Light Rain,120,2013-10-05 17:35:00
12:55 PM,53.2,52.9,99,29.92,10.0,ESE,9.2,16.1,0.02,Rain,Light Rain,110,2013-10-05 17:55:00
1:15 PM,53.8,53.4,99,29.91,10.0,ESE,10.4,19.6,N/A,,Overcast,110,2013-10-05 18:15:00
1:35 PM,54.3,53.8,98,29.91,10.0,ESE,9.2,18.4,N/A,,Overcast,110,2013-10-05 18:35:00
1:55 PM,54.1,53.8,99,29.90,10.0,ESE,8.1,19.6,N/A,,Overcast,120,2013-10-05 18:55:00
2:15 PM,54.5,54.1,99,29.90,10.0,ESE,9.2,-,N/A,Rain,Light Rain,110,2013-10-05 19:15:00
2:35 PM,54.5,53.8,97,29.91,10.0,ESE,10.4,-,N/A,,Overcast,110,2013-10-05 19:35:00
2:55 PM,54.5,54.0,98,29.90,10.0,East,5.8,-,N/A,,Overcast,90,2013-10-05 19:55:00
3:15 PM,54.5,54.0,98,29.90,10.0,East,6.9,-,N/A,,Overcast,90,2013-10-05 20:15:00
3:35 PM,53.8,53.6,99,29.89,7.0,East,8.1,-,N/A,Rain,Light Rain,80,2013-10-05 20:35:00
3:55 PM,53.6,53.6,100,29.89,2.0,East,8.1,-,0.02,Rain,Rain,80,2013-10-05 20:55:00
4:15 PM,53.6,53.6,100,29.88,10.0,East,9.2,-,0.01,,Overcast,80,2013-10-05 21:15:00
4:35 PM,53.1,52.9,99,29.87,3.0,East,11.5,-,0.01,,Light Drizzle,80,2013-10-05 21:35:00
4:55 PM,52.7,52.7,100,29.88,2.0,East,11.5,16.1,0.01,Rain,Light Rain,90,2013-10-05 21:55:00
5:15 PM,52.3,52.3,100,29.87,2.0,East,11.5,17.3,N/A,,Light Drizzle,100,2013-10-05 22:15:00
5:35 PM,52.0,52.0,100,29.86,2.0,East,9.2,-,N/A,,Light Drizzle,80,2013-10-05 22:35:00
5:55 PM,51.8,51.8,100,29.86,2.5,East,12.7,16.1,N/A,,Light Drizzle,100,2013-10-05 22:55:00
6:15 PM,51.4,51.4,100,29.86,3.0,East,9.2,18.4,N/A,Rain,Light Rain,100,2013-10-05 23:15:00
6:35 PM,51.1,51.1,100,29.86,2.5,ESE,9.2,17.3,N/A,,Light Drizzle,110,2013-10-05 23:35:00
6:55 PM,50.9,50.9,100,29.85,5.0,ESE,9.2,-,N/A,,Overcast,110,2013-10-05 23:55:00
7:15 PM,50.9,50.9,100,29.84,7.0,ESE,10.4,-,N/A,,Overcast,110,2013-10-06 00:15:00
7:35 PM,50.9,50.9,100,29.82,7.0,East,13.8,-,N/A,,Overcast,100,2013-10-06 00:35:00
7:55 PM,50.7,50.7,100,29.82,7.0,East,10.4,18.4,N/A,,Overcast,100,2013-10-06 00:55:00
8:15 PM,50.9,50.9,100,29.82,7.0,ESE,10.4,17.3,N/A,,Overcast,110,2013-10-06 01:15:00
8:35 PM,50.5,50.5,100,29.81,5.0,ESE,11.5,17.3,N/A,,Overcast,110,2013-10-06 01:35:00
8:55 PM,50.9,50.9,100,29.80,5.0,East,9.2,17.3,N/A,,Overcast,100,2013-10-06 01:55:00
9:15 PM,50.9,50.9,100,29.79,5.0,East,10.4,18.4,N/A,,Overcast,100,2013-10-06 02:15:00
9:35 PM,50.5,50.5,100,29.77,3.0,East,12.7,20.7,N/A,,Overcast,100,2013-10-06 02:35:00
9:55 PM,50.7,50.7,100,29.76,3.0,ESE,13.8,18.4,N/A,,Overcast,110,2013-10-06 02:55:00
10:15 PM,50.9,50.9,100,29.76,2.5,ESE,13.8,18.4,N/A,,Overcast,110,2013-10-06 03:15:00
10:35 PM,50.9,50.9,100,29.76,2.5,ESE,11.5,17.3,N/A,Rain,Light Rain,120,2013-10-06 03:35:00
10:55 PM,51.3,51.3,100,29.75,3.0,East,11.5,18.4,0.01,Rain,Light Rain,100,2013-10-06 03:55:00
11:15 PM,51.4,51.4,100,29.75,7.0,ESE,10.4,17.3,0.02,Rain,Rain,120,2013-10-06 04:15:00
11:35 PM,51.6,51.6,100,29.72,5.0,East,10.4,-,0.10,Rain,Heavy Rain,100,2013-10-06 04:35:00
11:55 PM,52.0,52.0,100,29.70,7.0,East,11.5,-,0.13,Rain,Light Rain,100,2013-10-06 04:55:00